Location: Fisher's Paradise
(46.5411°N, 80.0984°W)
Time: 20:52:20
(UTC-04:00)

ISS - Visible Passes

Search period start: 19 October 2019 00:00
Search period end: 29 October 2019 00:00
Orbit: 411 x 421 km, 51.6° (Epoch: 19 October)

Date Brightness Start Highest point End Pass type
(mag) Time Alt. Az. Time Alt. Az. Time Alt. Az.
22 Oct -0.4 07:03:13 10° SSE 07:04:06 11° SE 07:04:59 10° ESE visible
24 Oct -1.5 07:00:24 10° SSW 07:03:14 25° SE 07:06:05 10° E visible
25 Oct -0.9 06:12:36 10° S 06:14:47 16° SE 06:16:58 10° E visible
26 Oct -3.2 06:59:12 10° SW 07:02:30 59° SSE 07:05:50 10° ENE visible
27 Oct -2.5 06:12:22 23° SSW 06:13:57 37° SE 06:17:05 10° ENE visible
28 Oct -1.4 05:26:08 22° ESE 05:26:08 22° ESE 05:28:11 10° E visible
28 Oct -3.7 06:59:03 14° WSW 07:01:55 67° NNW 07:05:16 10° ENE visible
